Content
SEND FEEDBACK

Daily
Averages
Monthly
Summary
United States of America

HINGHAM, MASSACHUSETTS


Home > North America > United States > Massachusetts
Elevation: 3 feet     Latitude: 42 14N     Longitude: 070 55W

WEATHER
 
SELECT A DAY
Number of Records: 133,021;   Date Range: 10/15/98 - 7/26/14
 
SHARE

PRINT THIS DATA

[ ← Previous Day ]
WEATHER ALMANAC - JANUARY 18, 2013
[ Next Day → ]
[ °C ]   °F
Weather ElementAverageHighLow
Temperature20.3 °F26.1 °F (1:54 am)16 °F (7:54 am)
Humidity41.2 %48 % (11:54 pm)35 % (2:54 pm)
Barometer30.32 in30.47 in (7:54 pm)30.06 in (1:54 am)
Wind Speed12.1 mph17.3 mph (12:54 pm)
Wind Gust34.5 mph (1:54 pm)
Weather ElementAverage
Wind DirectionWNW (279.6 °)

Weather ElementTotal
Precipitation---
Heating Degree Days44 (Base 65)
Averaged from 23 records on January 18, 2013
WEATHER CONDITIONS BREAKOUT
WIND DIRECTION BREAKOUT
WEATHER BY HOUR - JANUARY 18, 2013
[ °C ]   °F
Local TimeTemperatureDewpointHumidityBarometerVisibilityWind DirectionWind SpeedGust SpeedPrecipitationEventsConditions
1:54 AM26.1 °F7.0 °F44 %30.06 inNorth (350°)11.5 mph23.0 mph
2:54 AM26.1 °F8.1 °F47 %30.10 inNNW (340°)9.2 mph
3:54 AM25.0 °F3.0 °F39 %30.11 inNorth (350°)10.4 mph16.1 mph
4:54 AM21.0 °F-0.9 °F38 %30.12 inNNW (340°)9.2 mph20.7 mph
5:54 AM19.0 °F-2.0 °F40 %30.17 inNNW (340°)16.1 mph25.3 mph
6:54 AM17.1 °F-2.0 °F43 %30.22 inNNW (330°)9.2 mph16.1 mph
7:54 AM16.0 °F-0.9 °F47 %30.26 inNNW (330°)11.5 mph21.9 mph
8:54 AM17.1 °F-2.9 °F41 %30.32 inNNW (330°)13.8 mph24.2 mph
9:54 AM18.0 °F-5.1 °F36 %30.33 inNW (320°)8.1 mph21.9 mph
10:54 AM19.0 °F-2.9 °F38 %30.35 inNW (310°)16.1 mph24.2 mph
11:54 AM21.0 °F-2.0 °F36 %30.34 inNW (310°)13.8 mph20.7 mph
12:54 PM21.9 °F-0.9 °F37 %30.34 inWNW (290°)17.3 mph28.8 mph
1:54 PM21.9 °F1.0 °F40 %30.36 inWNW (300°)15.0 mph34.5 mph
2:54 PM23.0 °F-0.9 °F35 %30.38 inWNW (300°)15.0 mph25.3 mph
3:54 PM21.9 °F-0.9 °F37 %30.39 inVariable6.9 mph
4:54 PM19.9 °F-0.9 °F40 %30.41 inWNW (290°)12.7 mph19.6 mph
5:54 PM19.0 °F-2.0 °F40 %30.44 inWest (280°)9.2 mph
6:54 PM19.0 °F-0.9 °F42 %30.46 inWest (260°)9.2 mph
7:54 PM19.0 °F0.0 °F43 %30.47 inWSW (240°)8.1 mph
8:54 PM19.0 °F0.0 °F43 %30.47 inSW (230°)11.5 mph
9:54 PM19.0 °F1.0 °F46 %30.45 inSouth (190°)12.7 mph
10:54 PM19.0 °F1.9 °F47 %30.43 inSSW (200°)15.0 mph
11:54 PM19.9 °F3.0 °F48 %30.42 inSSW (200°)16.1 mph
Hourly data recorded from KMQE, located miles away from Hingham, Massachusetts







STORIES FROM OUR PARTNERS